Погода в Омолоне

Погода в Омолоне : погода сейчас, прогноз погоды и архив. Всё, что Вы хотите узнать о погоде в Омолоне!

Поиск расширенной информации на нашем сайте:

Другие новости

Новости СМИ2

Главная страница сайта

Новости сайта

03.07.2017

Напоминаем, что на нашем специализированном сайте Метеоцентр.Азия вы можете получить высокодетализированные автоматические прогнозы погоды по пунктам России, СНГ и мира в авиационном формате (включающие направление и скорость ветра, видимость, явления погоды, количество и форму облачности, нижнюю и верхнюю границу облачности).


Погода в Омолоне - сегодня

Время (UTC), дата Ветер
(°,м/с) 
Видим.   Явления Облачность Т
(°С)
Тd
(°С)
f(%) Тe
(°С)
Pmin
(гПа)
dP
(гПа)
Po
(мм)
O2
(г/м3)
Тmin Tmax R s Состояние
почвы
18 22.05.18 270 (З) 1{02}  50000 м    4/0 верхняя 
[Ci fib]
+2.3 -1.8 74 +3  1007  0.7  731  292           
21 22.05.18 300 (СЗ) 3{05}  50000 м    3/0 верхняя 
[Ci fib]
+8.1 -1.2 52 +7  1006.5  0.2  731  286  -2.1      16  мокрый или
старый снег
50-90% 
03 23.05.18 020 (С) 3{06}  50000 м    3/0 верхняя 
[Ci fib]
+11.1 -1.7 41 +11  1005.9  -0.3  731  283           
06 23.05.18 020 (С) 3{06}  50000 м    4/0 верхняя 
[Ci fib]
+11.2 -2 40 +11  1006.4  0.5  732  283           
12 23.05.18 290 (З) 2{04}  50000 м    5/0 верхняя 
[Ci fib]
+4.5 -1.3 66 +4  1008.9  0.9  733  291           
15 23.05.18 300 (СЗ) 3{06}  50000 м    3/0 верхняя 
[Ci fib]
+3.1 -1.1 74 +2  1009.6  0.5  733  292           
18 23.05.18 310 (СЗ) 4{08}  50000 м    5/0 верхняя 
[Ci fib]
+3 -1.7 71 +1  1010  0.4  734  293           
21 23.05.18 280 (З) 5{10}  50000 м    3/0 верхняя 
[Ci fib]
+4.8 -3.2 56 +3  1009.9  734  291  +2      мокрый или
старый снег
10-40% 
03 24.05.18 280 (З) 4{08}  50000 м    6/0 верхняя 
[Ci fib]
+9.4 -1.7 46 +8  1008.4  -0.5  733  286           
06 24.05.18 290 (З) 4{08}  50000 м    8/3 1000 м средняя, верхняя 
[Sc|Ac trans|Ci fib]
+9.5 -2.5 43 +9  1007.9  -0.5  733  285           
12 24.05.18 250 (З) 2{06}  50000 м    8/0 средняя, верхняя 
[Ac trans|Ci fib]
+3.3 -2.7 65 +3  1009.7  0.4  733  292           
15 24.05.18 270 (З) 2{03}  50000 м    6/0 верхняя 
[Ci fib]
+0.9 -3.1 75 1010.1  0.1  733  295           
18 24.05.18 360 (С) 1{03}  50000 м    8/0 средняя, верхняя 
[Ac trans|Ci fib]
+1.4 -2.9 73 +2  1010.6  0.6  734  294           
21 24.05.18 310 (СЗ) 2{05}  50000 м    10/3 1000 м средняя, верхняя 
[Sc|Ac trans|Ci fib]
+4.6 -2.5 60 +4  1010.9  0.6  734  291  -1.2      мокрый или
старый снег
10-40% 
03 25.05.18 290 (З) 3{06}  50000 м    8/5 1000 м средняя, верхняя 
[Cu Sc|Ac cast|Ci sp]
+8 -1.9 50 +7  1010.5  -0.1  734  288           
06 25.05.18 310 (СЗ) 3{06}  50000 м    6/3 1000 м средняя, верхняя 
[Cu hum|Ac lent|Cc]
+7.9 -2.5 48 +7  1010.6  734  288           
12 25.05.18 300 (СЗ) 2{06}  50000 м    10/5 1000 м средняя, верхняя 
[Sc|Ac trans|Ci sp]
+1.9 -3.8 66 +1  1012.7  0.4  735  295           
15 25.05.18 300 (СЗ) 1{04}  50000 м    10/6 1000 м средняя, верхняя 
[Sc|Ac cast|Cs]
-0.4 -3.6 79 1012.7  -0.2  735  297           
18 25.05.18 290 (З) 1{02}  50000 м    10/5 1000 м средняя, верхняя 
[Sc|Ac trans|Ci fib]
-0.3 -2.8 83 1012.8  0.1  735  297           
21 25.05.18 200 (Ю) 1{02}  50000 м    8/3 1000 м средняя, верхняя 
[Sc|Ac trans|Ci fib]
+3.1 -2.2 68 +4  1012.2  -0.1  735  293  -1.4      мокрый или
старый снег
10-40% 
03 26.05.18 060 (СВ) 2{06}  50000 м    5/3 1000 м средняя, верхняя 
[Cu hum|Ac trans|Ci fib]
+8.8 -1.9 47 +9  1009.6  -1.4  734  287           
06 26.05.18 080 (В) 2{04}  50000 м    10/3 1000 м средняя, верхняя 
[Cu hum|Ac trans|Ci fib]
+9.3 -2.7 43 +9  1008.4  -1  733  286           
12 26.05.18 100 (В) 2{05}  50000 м    10/4 1000 м средняя, верхняя 
[Sc|Ac trans|Ci fib]
+2.4 -0.3 82 +2  1009.2  0.1  733  293           
15 26.05.18 120 (ЮВ) 1{04}  50000 м    10/8 1000 м средняя 
[Sc|Ac As]
+1.2 -0.2 90 +2  1009  -0.3  733  294           
18 26.05.18 140 (ЮВ) 1{02}  50000 м    10/6 1000 м средняя, верхняя 
[Sc|Ac trans|Ci fib]
+1.8 +0.3 90 +3  1008.5  -0.5  732  293           
Время (UTC), дата Ветер
(°,м/с) 
Видим.   Явления Облачность Т
(°С)
Тd
(°С)
f(%) Тe
(°С)
Pmin
(гПа)
dP
(гПа)
Po
(мм)
O2
(г/м3)
Тmin Tmax R s Состояние
почвы

Для получения пояснительной информации подведите курсор к названию столбца.

ПОГОДА в Омолоне - архив

Всё, что Вы хотите узнать о погоде в Омолоне - удобно и подробно!

Выберите нужную дату (начиная с 1 января 2015* года) и нажмите кнопку "Найти".
Будут отображены архивные сводки погоды по пункту Омолон, начиная с указанной даты.


Отображать данные в формате CSV (для использования в таблицах Excel)


Внимание! Наш архив погоды предназначен исключительно для личного некоммерческого использования в познавательных целях. Если Вам необходимы официальные справки о состоянии погоды (для производственных, юридических, коммерческих и т.п. целей), обращайтесь в органы Росгидромета.

*Примечание: данная дата относится к архиву по метеостанциям СССР (Россия, СНГ, Балтия).
Архив по метеостанциям Зарубежной Европы и Азии (кроме Китая) хранится 10 дней, по другим регионам земного шара (Китай, Африка, Америка, Австралия, Океания) - 1 день.

Омолон - район местоположения метеостанции


Название, широта, долгота, высота метеостанции:
Омолон 65.2°ш. 160.5°д. 264 м над ур. моря [Российская Федерация]

Дополнительная информация

В oтличие oт бoльшинства пoгoдных сайтoв мы публикуем пoдрoбную метеoинфoрмацию в детальнoм прoфессиoнальнoм фoрмате.

Характеристики температуры и влажнoсти вoздуха измеряются на высoте 2 м в тени вдали oт зданий и деревьев.
Скoрoсть ветра измеряется на высoте 10 м (на урoвне рoста челoвека скoрoсть ветра ниже в 1.5-2 раза). Если метеoстанция нахoдится в гoрoде или в лесу, тo скoрoсть ветра занижена на 2-4 м/с пo сравнению с oткрытым местoм. Скoрoсть ветра над акватoриями крупных рек и oзёр, а также на вершинах хoлмoв на 2-5 м/с выше, чем в oбычных услoвиях.
Атмoсфернoе давление в разных тoчках местнoсти мoжет значительнo oтличаться oт давления на метеoстанции, в зависимoсти oт услoвий рельефа (при пoдъёме на 10 м давление пoнижается примернo на 1 мм рт.ст.).